Terug naar catalogus

COSMOS 1275 DEB

ActiefPO
NORAD 39958·DEBRIS·🇷🇺 Russia

Gelanceerd Jun 4, 1981 vanaf Plesetsk Cosmodrome

Loading…

Volgende Passages (komende 24 uur)

TLE

VerouderdSource: Space-Track

Epoch: Aug 29, 2026, 12:18 UTC

1 39958U 81053NU  26241.51299343  .00000550  00000-0  54973-3 0  9993
2 39958  83.0306 160.3940 0085747 253.3340 285.5481 13.74713616612797

Volg COSMOS 1275 DEB in realtime met AllMySat

Download on the App Store